www.pogodaiklimat.ru

Погода и климат >> Архив погоды >> Украина >> Коростень


ПОГОДА в Коростени

  • Прогноз погоды в Коростени
  • Монитор погоды в Коростени

АРХИВ ПОГОДЫ в Коростени

Время (UTC), дата Ветер
(напр.,м/с)
 
Видим.   Явления Облачность Т
(С)
Тd
(С)
f
(%)
Тe
(С)
Тes
(С)
Комфортность P
(гПа)
Po
(гПа)
Тmin
(С)
Tmax
(С)
R
(мм)
R24
(мм)
S
(см)
15 15.09 ЮЗ 4 20 км 9/0
[Ci fib]
+18.6 +1.3 31 +19 +19 1018.5 996.5
18 15.09 Ю 2 20 км 4/0
[Ci fib]
+14.7 +3.3 46 +15 +15 1016.8 994.6 +20.2
21 15.09 Ю 2 20 км 4/0
[Ci fib]
+12.2 +2.6 52 +12 +12 1015.1 992.7
00 16.09 ЮЗ 3 20 км 3/0
[Ci fib]
+13.5 +4.1 53 +13 +13 1013.4 991.2
03 16.09 ЮЗ 4 20 км 6/0
[Ac trans Ci fib]
+12.8 +6.1 64 +11 +11 1012.1 989.9
06 16.09 З 3 20 км 9/0
[Ac und]
+14.0 +8.0 67 +13 +14 1011.8 989.7 +12.2
09 16.09 ЮЗ 5 20 км 8/0
[Ac trans]
+18.2 +7.2 49 +18 +20 1011.0 989.2
12 16.09 З 7 20 км 6/0
[Cc]
+20.8 +4.5 34 +21 +23 комфорт 1009.6 988.0
15 16.09 З 5 20 км 8/0
[Ac trans Ci fib]
+20.2 +2.9 32 +20 +21 1008.9 987.3
18 16.09 З 2 20 км 10/0
[Ac und]
+16.2 +3.8 44 +16 +16 1010.0 988.1 +21.8
21 16.09 ЮЗ 2 10 км 6/0
[Ac trans]
+10.8 +5.1 68 +10 +10 1010.6 988.2
00 17.09 ЮЗ 2 20 км 5/0
[Cc]
+11.0 +4.9 66 +10 +10 1010.1 987.8
03 17.09 ЮЗ 3 20 км 3/0
[Ac trans]
+8.8 +5.3 79 +6 +6 1010.2 987.7
06 17.09 З 5 20 км 8/0
[Ci fib]
+11.1 +5.0 66 +9 +9 1010.3 988.0 +7.9
09 17.09 З 5 20 км 4/3 600 м
[Cu hum Ci fib]
+15.6 +2.6 42 +15 +17 1009.6 987.6
12 17.09 З 3 20 км 3/3 600 м
[Cu hum]
+17.6 +1.0 33 +18 +22 1008.1 986.3
15 17.09 ЮЗ 3 20 км 3/1 600 м
[Cu hum Cc]
+17.1 +0.5 33 +17 +17 1006.6 984.8
18 17.09 Ю 2 20 км 9/9 600 м
[Sc]
+13.9 +2.8 47 +14 +14 1005.9 983.9 +18.3
21 17.09 ЮЗ 4 20 км 9/0
[Ac trans]
+12.9 +3.7 54 +11 +11 1004.6 982.5
00 18.09 Ю 4 20 км в посл. час ливневой дождь 9/9 600 м
[Cb calv]
+11.3 +5.8 69 +9 +9 1002.3 980.2
03 18.09 ЮЗ 6 20 км {ливн. осадки} 9/9 600 м
[Cb calv]
+8.0 +6.0 87 +4 +4 1002.9 980.5
06 18.09 З 6 20 км {ливн. осадки} 8/8 600 м
[Cb calv]
+8.0 +4.9 81 +4 +4 1004.4 982.0 +7.4 1
09 18.09 З 6 20 км в посл. час ливневой дождь 8/8 600 м
[Cb calv]
+9.6 +4.7 71 +6 +7 1005.8 983.5
12 18.09 ЮЗ 6 20 км в посл. час ливневой дождь 8/8 600 м
[Cb calv]
+10.0 +6.2 77 +7 +7 1007.2 984.9
15 18.09 З 7 20 км {ливн. осадки} 8/6 600 м
[Cb calv Ci fib]
+11.4 +5.4 67 +8 +8 1009.2 986.9
18 18.09 З 5 20 км {ливн. осадки} 8/4 600 м
[Cb calv Ci fib]
+9.4 +5.5 77 +6 +6 1012.8 990.3 +12.0 0.5
21 18.09 З 5 20 км 8/0
[Ac trans Ci fib]
+7.8 +5.4 85 +4 +4 1014.8 992.1
00 19.09 ЮЗ 3 20 км 3/0
[Ac trans Ci fib]
+6.3 +4.7 89 +3 +3 1015.9 993.1
03 19.09 ЮЗ 3 10 км 8/0
[Ac trans]
+6.0 +4.6 91 +3 +3 1016.5 993.6
06 19.09 З 3 20 км 10/10 600 м
[Cb calv]
+7.4 +4.7 83 +5 +5 1017.5 994.7 +5.5
09 19.09 ЮЗ 4 20 км 8/3 600 м
[Cb calv Ac trans]
+11.4 +5.3 66 +9 +11 1018.0 995.5
12 19.09 ЮЗ 4 20 км 8/5 600 м
[Cb calv Ci fib]
+12.8 +3.4 53 +11 +13 1017.7 995.3
15 19.09 З 4 20 км 8/8 600 м
[Cb calv]
+11.6 +5.1 64 +10 +10 1018.4 995.9
18 19.09 З 3 20 км ясно +7.6 +5.8 88 +5 +5 1019.5 996.7 +14.0
21 19.09 ЮЗ 3 20 км ясно +6.2 +3.3 82 +3 +3 1019.9 997.0
00 20.09 ЮЗ 3 20 км 5/0
[Ac trans]
+4.2 +1.7 84 +1 +1 1019.6 996.5
06 20.09 З 3 10 км 9/4 600 м
[Cb calv Ac trans]
+5.4 +3.7 89 +2 +2 1019.5 996.5 +4.0
12 20.09 З 4 20 км в посл. час ливневой дождь 9/6 600 м
[Cb calv Ac trans Ci fib]
+8.3 +4.4 76 +5 +6 1019.4 996.6
18 20.09 З 2 20 км {ливн. осадки} 6/6 600 м
[Sc]
+5.3 +3.4 88 +3 +3 1021.4 998.4 +11.8 0.8
00 21.09 З 3 10 км ясно +1.4 +0.3 92 -3 -3 1023.2 999.8
06 21.09 ЮЗ 2 20 км 6/0
[Ac trans Ci fib]
+2.6 +1.0 89 -1 +1 1024.1 1000.8 +0.1
12 21.09 ЮЗ 4 20 км 10/10 600 м
[Cb calv]
+12.6 +2.0 48 +11 +11 1020.7 998.2
18 21.09 ЮЗ 3 10 км {ливн. осадки} 10/10 600 м
[Cb calv]
+10.5 +9.1 91 +8 +8 1018.5 996.0 +14.2 0.0
00 22.09 З 5 10 км 10/10 300 м
[Cb calv]
+11.8 +10.0 89 +9 +9 1016.2 993.8
06 22.09 ЮЗ 4 20 км {ливн. осадки} 10/10 300 м
[Cb calv]
+12.6 +9.0 79 +11 +11 1016.4 994.1 +10.5 0.0
12 22.09 З 4 20 км 5/5 600 м
[Cu med, cong]
+19.0 +6.7 45 +19 +22 1014.8 993.0

 

Местоположение метеостанции Коростень (Житомирская область, Украина): широта 50.95 долгота 28.65 высота над уровнем моря 189 м.

В архиве по умолчанию представлена погода в Коростени за последнюю неделю. Архивные данные за месяц целиком и за предыдущие месяцы, начиная с января 2011 года, Вы можете получить, выбрав интересующий диапазон дат из раскрывающегося списка и нажав кнопку "Ввод!".


*Определитесь, кто Вы:
робот инопланетянин человек

Внимание! Время в таблицах - всемирное. Для получения местного времени необходимо прибавить поправку, которая равна 2 ч.

Смотрите также архив погоды в соседних городах и на ближайших метеорологических станциях:

Погода в Овруче (Житомирская область, Украина) (42 км)
Погода в Тетереве (Киевская область, Украина) (71 км)
Погода в Олевске (Житомирская область, Украина) (74 км)
Погода в Житомире (Житомирская область, Украина) (80 км)
Погода в Новограде-Волынском (Житомирская область, Украина) (82 км)
Погода в Чернобыле (Киевская область, Украина) (116 км)
Погода в Белополе (Винницкая область, Украина) (126 км)
Погода в Мозыре (Гомельская область, Беларусь) (127 км)
Погода в Фастове (Киевская область, Украина) (132 км)
Погода в Вышгороде (Киевская область, Украина) (135 км)

Пояснения к столбцам:

Ветер - указаны скорость ветра в м/с - средняя за 10 мин, порывы в срок и между сроками (в фигурных скобках) и направление, откуда дует ветер: С - северный, СВ - северо-восточный, В - восточный, ЮВ - юго-восточный, Ю - южный, ЮЗ - юго-западный, З - западный, СЗ - северо-западный.
Видимость - горизонтальная дальность видимости в метрах или километрах. При видимости от 1 до 10 км при отсутствии осадков обычно наблюдается дымка, при ухудшении видимости до 1 км и менее - туман. В сухую погоду видимость может ухудшаться дымом, пылью или мглою.
Явления - указаны атмосферные явления, наблюдавшиеся в срок или в последний час перед сроком; фигурными скобками обозначены явления, наблюдавшиеся между сроками (за 1-3 часа до срока); квадратными скобками обозначены град или гололедные отложения с указанием их диаметра в мм.
Облачность - указаны через наклонную черту общая и нижняя облачность в баллах и высота нижней границы облаков в метрах; квадратными скобками обозначены формы облаков: Ci - перистые, Cs - перисто-слоистые, Cc - перисто-кучевые, Ac - высококучевые, As - высокослоистые, Sc - слоисто-кучевые, Ns - слоисто-дождевые, Cu - кучевые, Cb - кучево-дождевые. Подробнее классификацию облаков см. в Атласе облаков (PDF).
T - Температура воздуха - температура, измеренная на высоте 2 м над землей.
Td - Температура точки росы - температура, при понижении до которой содержащийся в воздухе водяной пар достигнет насыщения.
f - Относительная влажность воздуха - влажноcть воздуха, измеренная на высоте 2 м над землей.
Te - Эффективная температура - температура, которую ощущает одетый по сезону человек в тени. Характеристика душности погоды. При расчете учитывается влияние влажности воздуха и скорости ветра на теплоощущения человека.
Tes - Эффективная температура на солнце - температура, которую ощущает человек, с поправкой на солнечный нагрев. Характеристика знойности погоды. Зависит от высоты солнца над горизонтом, облачности и скорости ветра. Ночью, в пасмурную погоду, а также при ветре 12 м/с и более поправка равна нулю.
P - Атмосферное давление - приведенное к уровню моря атмосферное давление.
Po - Атмосферное давление - измеренное на уровне метеостанции атмосферное давление.
Tmin - Минимальная температура - минимум температуры воздуха на высоте 2 м над землей.
Tmax - Максимальная температура - максимум температуры воздуха на высоте 2 м над землей.
R - Количество осадков - Количество выпавших осадков за период времени, мм. При наведении курсора мыши на число - период времени, за который выпало указанное количество осадков.
R24 - Количество осадков - Количество выпавших осадков за 24 часа, мм.
S - Снежный покров - Высота снежного покрова, см. При наведении курсора мыши на число - состояние снежного покрова и степень покрытия местности в баллах.